Oceanside, CA

6:52 PM PDT on August 17, 2017 (GMT -0700)
Oceanside Municipal

Weather History for KOKB - December, 2013

Change the Weather History Date:

Friday, December 13, 2013

  Actual Average Record
Temperature  
Mean Temperature 48 °F 52 °F  
Max Temperature 64 °F 65 °F 81 °F (2010)
Min Temperature 31 °F 40 °F 29 °F (1999)
Degree Days  
Heating Degree Days 17 12  
Month to date heating degree days 173 153  
Since 1 July heating degree days 472 503  
Cooling Degree Days 0 0  
Month to date cooling degree days 0 0  
Year to date cooling degree days 535 419  
Moisture  
Dew Point 39 °F    
Average Humidity 68    
Maximum Humidity 92    
Minimum Humidity 43    
Precipitation  
Precipitation 0.00 in 0.04 in 0.83 in (2012)
Month to date precipitation 0.05 0.52  
Year to date precipitation 3.61 12.03  
Since 1 July precipitation 1.29  
Snow  
Snow 0.00 in - - ()
Month to date snowfall 0.0  
Year to date snowfall 0.0  
Snow Depth 0.00 in    
Sea Level Pressure  
Sea Level Pressure 30.18 in    
Wind  
Wind Speed 3 mph (WNW)    
Max Wind Speed 12 mph    
Max Gust Speed 15 mph    
Visibility 7 miles    
Events      
T = Trace of Precipitation, MM = Missing Value Source: NWS Daily Summary

Daily Weather History Graph

Daily Weather History Graph

Search for Another Location

Airport or City:

Trip Planner

Search our weather history database for the weather conditions in past years. The results will help you decide how hot, cold, wet, or windy it might be!

Date:

Astronomy

Dec. 13, 2013 Rise Set
Actual Time 6:44 AM PST 4:43 PM PST
Civil Twilight 6:16 AM PST 5:10 PM PST
Nautical Twilight 5:46 AM PST 5:41 PM PST
Astronomical Twilight 5:15 AM PST 6:11 PM PST
Moon 2:22 PM PST (12/13) 3:19 AM PST (12/13)
Length of Visible Light 10h 53m
Length of Day
9h 58m
Waxing Gibbous, 88% of the Moon is Illuminated
Dec 13
Waxing Gibbous
Dec 17
Full
Dec 25
Last Quarter
Jan 1
New
Jan 7
First Quarter

Hourly Weather History & Observations

Time (PST) Temp. Windchill Dew Point Humidity Pressure Visibility Wind Dir Wind Speed Gust Speed Precip Events Conditions
12:52 AM 39.0 °F - 36.0 °F 89% 30.17 in 5.0 mi Calm Calm - N/A   Clear
1:52 AM 37.9 °F 33.5 °F 35.1 °F 89% 30.17 in 8.0 mi NE 5.8 mph - N/A   Clear
2:52 AM 39.0 °F 36.8 °F 35.1 °F 86% 30.18 in 10.0 mi NNE 3.5 mph - N/A   Clear
3:52 AM 35.1 °F - 32.0 °F 89% 30.18 in 7.0 mi Calm Calm - N/A   Clear
4:52 AM 33.1 °F - 30.0 °F 89% 30.18 in 7.0 mi Calm Calm - N/A   Clear
5:52 AM 32.0 °F - 28.9 °F 88% 30.20 in 8.0 mi Calm Calm - N/A   Clear
6:52 AM 32.0 °F 28.7 °F 28.9 °F 88% 30.21 in 7.0 mi NE 3.5 mph - N/A   Clear
7:52 AM 39.9 °F - 33.1 °F 77% 30.21 in 10.0 mi Calm Calm - N/A   Clear
8:52 AM 46.9 °F - 35.1 °F 63% 30.23 in 10.0 mi NE 3.5 mph - N/A   Clear
9:52 AM 55.0 °F - 34.0 °F 45% 30.23 in 10.0 mi Calm Calm - N/A   Clear
10:52 AM 61.0 °F - 46.0 °F 58% 30.19 in 10.0 mi Calm Calm - N/A   Clear
11:52 AM 63.0 °F - 46.9 °F 56% 30.17 in 10.0 mi WSW 9.2 mph - N/A   Clear
12:52 PM 62.1 °F - 46.0 °F 56% 30.15 in 10.0 mi WSW 8.1 mph - N/A   Clear
1:52 PM 62.1 °F - 46.9 °F 58% 30.13 in 10.0 mi West 5.8 mph - N/A   Clear
2:52 PM 61.0 °F - 48.0 °F 62% 30.13 in 10.0 mi WSW 9.2 mph - N/A   Clear
3:52 PM 60.1 °F - 46.9 °F 62% 30.13 in 10.0 mi WSW 5.8 mph - N/A   Clear
4:52 PM 55.9 °F - 48.9 °F 77% 30.15 in 9.0 mi WSW 3.5 mph - N/A   Clear
5:52 PM 48.9 °F - 45.0 °F 86% 30.16 in 8.0 mi Calm Calm - N/A   Clear
6:52 PM 45.0 °F - 42.1 °F 90% 30.18 in 7.0 mi Calm Calm - N/A   Clear
7:52 PM 45.0 °F - 41.0 °F 86% 30.19 in 5.0 mi Calm Calm - N/A   Clear
8:52 PM 43.0 °F - 39.9 °F 89% 30.20 in 4.0 mi Calm Calm - N/A   Clear
9:52 PM 41.0 °F - 39.0 °F 93% 30.19 in 5.0 mi Calm Calm - 0.01 in   Clear
10:39 PM 39.2 °F - 37.4 °F 93% 30.20 in 2.0 mi Calm Calm - N/A   Clear
10:49 PM 37.4 °F - 35.6 °F 93% 30.19 in 4.0 mi Calm Calm - N/A   Clear
10:52 PM 37.0 °F - 35.1 °F 93% 30.19 in 4.0 mi Calm Calm - N/A   Clear
11:52 PM 39.0 °F - 36.0 °F 89% 30.19 in 3.0 mi Calm Calm - N/A   Clear